Weather History for Ostend, Belgium

Change the Weather History Date:

Friday, April 26, 2013

  Actual Average Record
Temperature  
Mean Temperature 44 °F -  
Max Temperature 46 °F 58 °F 68 °F (2008)
Min Temperature 41 °F 46 °F 41 °F (1998)
Degree Days  
Heating Degree Days 22    
Moisture  
Dew Point 41 °F    
Average Humidity 84    
Maximum Humidity 93    
Minimum Humidity 70    
Precipitation  
Precipitation 0.12 in - - ()
Sea Level Pressure  
Sea Level Pressure 29.94 in    
Wind  
Wind Speed 10 mph ()    
Max Wind Speed 20 mph    
Max Gust Speed -    
Visibility 5.3 miles    
Events Fog , Rain    
Averages and records for this station are not official NWS values.
T = Trace of Precipitation, MM = Missing Value Source: Averaged Metar Reports

Daily Weather History Graph

Daily Weather History Graph

Search for Another Location

Airport:

Trip Planner

Search our weather history database for the weather conditions in past years. The results will help you decide how hot, cold, wet, or windy it might be!

Date:

Astronomy

Apr. 26, 2013 Rise Set
Actual Time 6:30 AM CEST 9:02 PM CEST
Civil Twilight 5:53 AM CEST 9:40 PM CEST
Nautical Twilight 5:06 AM CEST 10:27 PM CEST
Astronomical Twilight 4:11 AM CEST 11:23 PM CEST
Moon 10:16 PM CEST (4/26) 6:42 AM CEST (4/26)
Length of Visible Light 15h 46m
Length of Day
14h 32m
Full, 100% of the Moon is Illuminated
Apr 26
Full
May 2
Last Quarter
May 10
New
May 18
First Quarter
May 25
Full

Hourly Weather History & Observations

Time (CEST) Temp. Windchill Dew Point Humidity Pressure Visibility Wind Dir Wind Speed Gust Speed Precip Events Conditions
12:20 AM 51.8 °F - 44.6 °F 76% 30.04 in - SW 5.8 mph - N/A   Clear
12:50 AM 53.6 °F - 46.4 °F 77% 30.01 in - WSW 6.9 mph - N/A   Clear
1:20 AM 55.4 °F - 48.2 °F 77% 30.01 in - West 10.4 mph - N/A   Clear
1:50 AM 51.8 °F - 48.2 °F 88% 30.01 in 5.0 mi West 17.3 mph - N/A   Unknown
2:00 AM 52 °F - 47 °F 79% 30.01 in 5 mi West 17.9 mph - -   Partly Cloudy
2:20 AM 51.8 °F - 46.4 °F 82% 29.98 in 5.0 mi West 13.8 mph - N/A   Unknown
2:50 AM 50.0 °F - 44.6 °F 82% 29.98 in 3.7 mi WNW 8.1 mph - N/A   Unknown
3:20 AM 48.2 °F - 44.6 °F 87% 29.98 in 3.7 mi NW 4.6 mph - N/A   Unknown
3:50 AM 48.2 °F - 44.6 °F 87% 29.98 in 2.8 mi North 9.2 mph - N/A   Mist
4:20 AM 48.2 °F - 44.6 °F 87% 29.95 in 2.5 mi North 8.1 mph - N/A   Mist
4:50 AM 46.4 °F 41.9 °F 44.6 °F 93% 29.95 in - North 9.2 mph - N/A   Partly Cloudy
5:00 AM 47 °F - 44 °F 86% 29.96 in 2 mi North 8.9 mph - -   Mist
5:20 AM 46.4 °F 41.9 °F 44.6 °F 93% 29.95 in 1.6 mi North 9.2 mph - N/A   Scattered Clouds
5:50 AM 46.4 °F 41.1 °F 44.6 °F 93% 29.92 in 1.2 mi North 11.5 mph - N/A   Mostly Cloudy
6:20 AM 46.4 °F 40.4 °F 44.6 °F 93% 29.92 in 1.2 mi NNE 13.8 mph - N/A   Mostly Cloudy
6:50 AM 44.6 °F 38.1 °F 42.8 °F 93% 29.92 in 0.7 mi North 13.8 mph - N/A   Mostly Cloudy
7:20 AM 44.6 °F 38.4 °F 42.8 °F 93% 29.92 in 0.4 mi NNE 12.7 mph - N/A Fog Fog
7:50 AM 44.6 °F 38.8 °F 42.8 °F 93% 29.92 in 0.6 mi North 11.5 mph - N/A Fog , Rain Light Rain
8:00 AM 45 °F - 43 °F 89% 29.94 in 1 mi North 11.2 mph - - Rain Light Rain
8:20 AM 44.6 °F 37.8 °F 42.8 °F 93% 29.92 in 2.2 mi North 15.0 mph - N/A   Mostly Cloudy
8:50 AM 44.6 °F 38.4 °F 42.8 °F 93% 29.92 in 4.3 mi NNE 12.7 mph - N/A   Mostly Cloudy
9:20 AM 44.6 °F 37.8 °F 42.8 °F 93% 29.95 in 4.3 mi North 15.0 mph - N/A Rain Light Rain
9:50 AM 44.6 °F 37.8 °F 42.8 °F 93% 29.92 in 5.0 mi North 15.0 mph - N/A Rain Light Rain
10:20 AM 44.6 °F 37.4 °F 41.0 °F 87% 29.92 in 6.2 mi North 16.1 mph - N/A Rain Light Rain
10:50 AM 44.6 °F 37.4 °F 41.0 °F 87% 29.92 in 6.2 mi North 16.1 mph - N/A Rain Light Rain
11:00 AM 45 °F - 41 °F 82% 29.94 in 9 mi North 15.7 mph - - Rain Light Rain
11:20 AM 44.6 °F 37.8 °F 41.0 °F 87% 29.95 in 6.2 mi North 15.0 mph - N/A Rain Light Rain
11:50 AM 42.8 °F 34.8 °F 41.0 °F 93% 29.95 in 6.2 mi North 17.3 mph - N/A   Mostly Cloudy
12:20 PM 44.6 °F 36.6 °F 41.0 °F 87% 29.92 in 4.3 mi North 19.6 mph - N/A Rain Light Rain
12:50 PM 44.6 °F 36.9 °F 41.0 °F 87% 29.92 in 6.2 mi North 18.4 mph - N/A   Mostly Cloudy
1:20 PM 44.6 °F 38.1 °F 41.0 °F 87% 29.92 in 6.2 mi North 13.8 mph - N/A Rain Light Rain
1:50 PM 44.6 °F 37.8 °F 41.0 °F 87% 29.92 in 6.2 mi North 15.0 mph - N/A   Mostly Cloudy
2:00 PM 44 °F - 40 °F 83% 29.94 in 10 mi North 15.7 mph - - Rain Light Rain
2:20 PM 44.6 °F 37.8 °F 41.0 °F 87% 29.95 in 3.1 mi NNW 15.0 mph - N/A Rain Light Rain
2:50 PM 44.6 °F 38.1 °F 39.2 °F 81% 29.95 in 5.6 mi NNW 13.8 mph - N/A Rain Light Rain
3:20 PM 44.6 °F 38.8 °F 39.2 °F 81% 29.95 in 6.2 mi NNW 11.5 mph - N/A Rain Light Rain
3:50 PM 44.6 °F 39.2 °F 39.2 °F 81% 29.95 in 6.2 mi North 10.4 mph - N/A Rain Light Rain
4:20 PM 44.6 °F 39.2 °F 41.0 °F 87% 29.92 in 6.2 mi NNW 10.4 mph - N/A Rain Light Rain
4:50 PM 44.6 °F 39.2 °F 39.2 °F 81% 29.92 in 6.2 mi North 10.4 mph - N/A   Mostly Cloudy
5:00 PM 45 °F - 40 °F 76% 29.93 in 11 mi North 8.9 mph - - Rain Light Rain
5:20 PM 44.6 °F 39.7 °F 39.2 °F 81% 29.92 in 6.2 mi North 9.2 mph - N/A   Scattered Clouds
5:50 PM 44.6 °F 40.2 °F 39.2 °F 81% 29.92 in 6.2 mi NNW 8.1 mph - N/A   Scattered Clouds
6:20 PM 44.6 °F 40.7 °F 39.2 °F 81% 29.89 in 6.2 mi NNW 6.9 mph - N/A   Partly Cloudy
6:50 PM 44.6 °F 40.2 °F 39.2 °F 81% 29.92 in 6.2 mi NNW 8.1 mph - N/A   Partly Cloudy
7:20 PM 46.4 °F 42.4 °F 41.0 °F 81% 29.92 in 6.2 mi NNW 8.1 mph - N/A   Partly Cloudy
7:50 PM 44.6 °F 39.7 °F 37.4 °F 76% 29.92 in 6.2 mi NNW 9.2 mph - N/A   Scattered Clouds
8:00 PM 44 °F - 38 °F 73% 29.92 in 12 mi NNW 8.9 mph - -   Partly Cloudy
8:20 PM 44.6 °F 40.2 °F 37.4 °F 76% 29.92 in 6.2 mi NNW 8.1 mph - N/A   Partly Cloudy
8:50 PM 42.8 °F 40.1 °F 37.4 °F 81% 29.89 in 6.2 mi NW 4.6 mph - N/A   Scattered Clouds
9:20 PM 42.8 °F 38.6 °F 37.4 °F 81% 29.92 in 6.2 mi NW 6.9 mph - N/A   Mostly Cloudy
9:50 PM 42.8 °F 38.6 °F 37.4 °F 81% 29.92 in 6.2 mi NNW 6.9 mph - N/A   Mostly Cloudy
10:20 PM 42.8 °F 38.6 °F 35.6 °F 76% 29.92 in 6.2 mi NNW 6.9 mph - N/A   Partly Cloudy
10:50 PM 42.8 °F 39.3 °F 35.6 °F 76% 29.92 in 6.2 mi NNW 5.8 mph - N/A   Partly Cloudy
11:00 PM 42 °F - 36 °F 70% 29.93 in 12 mi NNW 6.7 mph - -   Partly Cloudy
11:20 PM 41.0 °F 38.0 °F 35.6 °F 81% 29.92 in 6.2 mi NNW 4.6 mph - N/A   Partly Cloudy
11:50 PM 41.0 °F 39.0 °F 33.8 °F 76% 29.89 in 6.2 mi NNW 3.5 mph - N/A   Partly Cloudy